Regional Weather Roundup
Issued by NWS

Home | Current Version | Previous Version | Graphics & Text | Print | Product List | Glossary On
Versions: 1 2 3 4 5 6 7 8 9 10 11 12 13 14 15 16 17 18 19 20 21 22 23 24 25 26 27 28 29 30 31 32 33 34 35 36 37 38 39 40 41 42 43 44 45 46 47 48 49 50
000
ASUS43 KMKX 011400
RWRWI

WISCONSIN REGIONAL WEATHER ROUNDUP
NATIONAL WEATHER SERVICE MILWAUKEE/SULLIVAN WI
900 AM CDT FRI AUG 01 2014

NOTE: "FAIR" INDICATES FEW OR NO CLOUDS BELOW 12,000 FEET WITH NO
SIGNIFICANT WEATHER AND/OR OBSTRUCTIONS TO VISIBILITY.

WIZ001-002-006>008-014>016-023>028-011500-
NORTHWEST WISCONSIN

CITY           SKY/WX    TMP DP  RH WIND       PRES   REMARKS
SUPERIOR ARPT  SUNNY     59  54  83 NE5       30.07S
ASHLAND        SUNNY     65  58  78 NE5       30.07R
HAYWARD        MOSUNNY   64  60  87 CALM      30.07R
SIREN          FOG       61  60  97 CALM      30.06R VSB 1/2
RICE LAKE      SUNNY     64  61  89 CALM      30.07S
LADYSMITH      CLOUDY    62  61  97 CALM      30.08S FOG
EAU CLAIRE     NOT AVBL
MENOMONIE      SUNNY     69  60  73 CALM      30.06S
NEW RICHMOND   SUNNY     67  62  84 W3        30.06F
OSCEOLA        SUNNY     66  65  96 CALM      30.08S
$$

WIZ003>005-009-010-017-018-011500-
NORTH CENTRAL WISCONSIN

CITY           SKY/WX    TMP DP  RH WIND       PRES   REMARKS
WOODRUFF       SUNNY     63  58  82 CALM      30.07S
RHINELANDER    SUNNY     63  59  87 CALM      30.08S
EAGLE RIVER    SUNNY     60  57  90 CALM      30.07S
LAND O LAKES   SUNNY     59  59 100 CALM      30.08S
PHILLIPS       MOSUNNY   60  60  99 CALM      30.07S
TOMAHAWK       SUNNY     60  59  97 CALM      30.07F
MEDFORD        SUNNY     63  61  93 CALM      30.07S
MERRILL        MOSUNNY   59  59 100 CALM      30.07S
$$

WIZ029-030-035-036-043>047-011500-
CENTRAL WISCONSIN

CITY           SKY/WX    TMP DP  RH WIND       PRES   REMARKS
WAUSAU         MOSUNNY   66  60  81 VRB3      30.05S
MOSINEE        MOSUNNY   64  64 100 CALM      30.07S
MARSHFIELD     MOSUNNY   69  61  75 W6        30.06S
STEVENS POINT  SUNNY     64  59  85 SW3       30.07S
WAUPACA        SUNNY     71  62  71 CALM      30.06S
WAUTOMA        NOT AVBL
WISC RAPIDS    SUNNY     70  60  70 CALM      30.08S
CAMP DOUGLAS   NOT AVBL
$$

WIZ011>013-019>022-031-037>040-048>050-011500-
NORTHEAST WISCONSIN

CITY           SKY/WX    TMP DP  RH WIND       PRES   REMARKS
ANTIGO         PTSUNNY   59  59 100 CALM      30.08S FOG
STURGEON BAY   SUNNY     66  61  82 CALM      30.06R
GREEN BAY      SUNNY     67  63  87 CALM      30.05F
MANITOWOC      NOT AVBL
APPLETON       SUNNY     66  63  88 VRB3      30.07R
CLINTONVILLE   SUNNY     66  61  82 W5        30.06S
OSHKOSH        MOSUNNY   70  62  76 VRB5      30.06R
$$

WIZ032>034-041-042-053>061-011500-
SOUTHWEST WISCONSIN

CITY           SKY/WX    TMP DP  RH WIND       PRES   REMARKS
LA CROSSE      SUNNY     70  60  70 S3        30.07R
SPARTA         SUNNY     64  60  85 CALM      30.08S
VIROQUA        FAIR      67  59  74 CALM      30.09R
BOSCOBEL       SUNNY     68  61  78 CALM      30.09R
PRAIRIE DU CHI CLOUDY    62  60  95 CALM      30.09R FOG
PLATTEVILLE    FAIR      67  63  86 CALM      30.10R
$$

WIZ056-057-062-063-064-067-068-011500-
SOUTH CENTRAL WISCONSIN

CITY           SKY/WX    TMP DP  RH WIND       PRES   REMARKS
BARABOO/DELLS  SUNNY     69  58  68 CALM      30.07S
LONE ROCK      MOSUNNY   65  60  84 CALM      30.08S
WATERTOWN      SUNNY     67  62  85 CALM      30.07S
MADISON        SUNNY     72  58  61 W3        30.08R
MIDDLETON      FAIR      71  58  63 W3        30.08S
MONROE         SUNNY     70  61  73 W6        30.10R
JANESVILLE     SUNNY     72  61  68 SW7       30.08S
$$

WIZ051-052-058>065-066-070>072-011500-
SOUTHEAST WISCONSIN

CITY           SKY/WX    TMP DP  RH WIND       PRES   REMARKS
MILWAUKEE      MOSUNNY   74  58  57 VRB3      30.07S
WAUKESHA       NOT AVBL
MILWAUKEE/TIMM SUNNY     72  57  60 W5        30.08S
RACINE         SUNNY     72  60  66 W6        30.09S
BURLINGTON     SUNNY     67  61  81 CALM      30.08S
KENOSHA        SUNNY     72  62  71 W7        30.09R
FOND DU LAC    MOSUNNY   71  61  70 W3        30.07R
SHEBOYGAN      SUNNY     72  62  71 W6        30.06S
WEST BEND      SUNNY     70  59  68 SW3       30.07S
JUNEAU         SUNNY     66  58  74 S3        30.08S
$$

LSZ147-162-011500-
LAKE SUPERIOR

STATION/POSITION TIME  TEMP    WIND        PRES    WAVE
                       AIR SEA DIR/SP/G            HT/PER
                 (UTC) (F)     (DEG/KT/KT) (MB)    (FT/S)
W MID LAKE BUOY  1250   47 43  350/  6/  8 1018.1R   0
PORT WING        1300   59      30/  3/  6 1018.3R
SAXON HARBOR     1300          200/  1/  3 1017.9R
$$

LMZ867-665-643>646-011500-
LAKE MICHIGAN

STATION/POSITION TIME  TEMP    WIND        PRES    WAVE
                       AIR SEA DIR/SP/G            HT/PER
                 (UTC) (F)     (DEG/KT/KT) (MB)    (FT/S)
N MID LAKE BUOY  1250   58 55     CALM     1017.0R   1
NORTHPORT PIER   1300   65     100/  1/  1 1017.6R
ALGOMA LAKESHORE 1321           80/  7/  8   N/A
KEWAUNEE LAKESHO 1300   63     320/  1/  4 1016.6R
SHEBOYGAN LAKESH 1300   71     260/  7/  8 1017.5R
PORT WASHINGTON  1300   72     290/  4/  7 1018.3
ATWATER BUOY     1300   69     300/  2     1019.2R
MILWAUKEE LAKESH 1300   70     280/  5/  8   N/A
S MID LAKE BUOY  1250   64 62  240/  6/  6 1018.2R   0
KENOSHA   LAKESH 1300   69     260/  8/ 10 1017.9S
$$

TC  - TEMPERATURE IN CELSIUS
VSB - VISIBILITY IN STATUTE MILES
WCI - WIND CHILL INDEX
HX  - HEAT INDEX




USA.gov is the U.S. government's official web portal to all federal, state and local government web resources and services.